Regional Weather Roundup
Issued by NWS State College, PA

Home | Current Version | Previous Version | Text Only | Print | Product List | Glossary Off
Versions: 1 2 3 4 5 6 7 8 9 10 11 12 13 14 15 16 17 18 19 20 21 22 23 24 25 26 27 28 29 30 31 32 33 34 35 36 37 38 39 40 41 42 43 44 45 46 47 48 49 50

000
ASUS41 KCTP 300703
RWRCTP

REGIONAL WEATHER ROUNDUP
NATIONAL WEATHER SERVICE STATE COLLEGE PA
300 AM EDT TUE SEP 30 2014

Note: "fair" indicates few or no clouds below 12,000 feet with no
significant weather and/or obstructions to visibility.

* = STATION THAT DOES NOT REPORT PRECIPITATION /E.G. RAIN...SNOW...ETC/
    THUNDER OR FOG.

PAZ002>004-007>009-013>016-020>023-029>032-300800-
WESTERN PENNSYLVANIA

CITY           SKY/WX    TMP DP  RH WIND       PRES   REMARKS
ERIE           PTCLDY    57  52  83 S7        29.88F
MEADVILLE      CLEAR     56  53  90 CALM      29.90F
FRANKLIN*      CLEAR     54  50  87 S3        29.92F
NEW CASTLE     FOG       52  52 100 CALM      29.92S VSB 1/4
BEAVER COUNTY  NOT AVBL
BUTLER*        PTCLDY    52  48  87 NE3       29.92F
PITTSBURGH INT CLEAR     56  54  93 CALM      29.90S
PITTSBURGH     CLEAR     59  55  87 S6        29.90F
INDIANA*       CLOUDY    55  54  94 CALM      29.95F
LATROBE        CLEAR     55  55 100 CALM      29.92S
WASHINGTON CO* CLEAR     54  52  94 CALM      29.93S
$$

PAZ004>006-010>012-017>019-024>028-033>037-041-042-045-046-049>053-300800-
CENTRAL PENNSYLVANIA

CITY           SKY/WX    TMP DP  RH WIND       PRES   REMARKS
BRADFORD       FOG       45  44  97 CALM      29.93S VSB 1/4
DUBOIS         MOCLDY    54  53  97 E3        29.91F
CLEARFIELD     CLEAR     52  51  97 CALM      29.93F
JOHNSTOWN      PTCLDY    60  51  72 S3        29.94F
ALTOONA        MOCLDY    59  56  89 CALM      29.93S
STATE COLLEGE  MOCLDY    58  56  95 CALM      29.92S
WILLIAMSPORT   FOG       59  57  93 CALM      29.90F VSB 3/4
SELINSGROVE    FOG       55  54  96 CALM      29.91F VSB 1/4
FT INDIANTOWN  CLOUDY    62  62 100 CALM      29.92F
CAPITAL CITY   PTCLDY    60  58  92 CALM      29.91F
HARRISBURG     PTCLDY    63  61  93 SE5       29.90F
YORK           PTCLDY    58  57  97 CALM      29.92S FOG
$$

PAZ038>040-043-044-047-048-054-055-060>062-067>071-300800-
EASTERN PENNSYLVANIA

CITY           SKY/WX    TMP DP  RH WIND       PRES   REMARKS
SCRANTON       PTCLDY    60  56  86 E3        29.92F
MOUNT POCONO   PTCLDY    55  53  93 NW3       29.95F FOG
ALLENTOWN      MOCLDY    60  58  92 CALM      29.92F FOG
QUAKERTOWN*    PTSUNNY   57  57 100 CALM      29.94F VSB 1
READING        MOCLDY    62  59  90 CALM      29.91F
LANCASTER      FOG       60  59  96 CALM      29.92S VSB<1/4
COATESVILLE    FOG       64  64 100 CALM      29.94S VSB 1/4
POTTSTOWN      MOCLDY    60  59  96 CALM      29.93F FOG
BLUE BELL      CLOUDY    61  61 100 CALM      29.92F
DOYLESTOWN     CLOUDY    60  60 100 CALM      29.92F
WILLOW GROVE   NOT AVBL
NORTH PHILA    CLOUDY    66  60  81 CALM      29.94F
PHILADELPHIA   CLOUDY    66  62  87 CALM      29.93F
$$


USA.gov is the U.S. government's official web portal to all federal, state and local government web resources and services.